Zurück zum Katalog

SL-14 DEB

AktivPO
NORAD 47087·DEBRIS·🇷🇺 Russia

Gestartet Aug 15, 1991 von Plesetsk Cosmodrome

Loading…

Nächste Überflüge (nächste 24 Stunden)

TLE

AktuellSource: Space-Track

Epoche: Sep 11, 2026, 21:41 UTC

1 47087U 91056DM  26254.90398323  .00000129  00000-0  26717-3 0  9991
2 47087  82.5969  66.7081 0061519 166.2445 194.0376 13.24587858283065

Verfolge SL-14 DEB in Echtzeit mit AllMySat

Download on the App Store